Time,TemperatureF,DewpointF,PressureIn,WindDirection,WindDirectionDegrees,WindSpeedMPH,WindSpeedGustMPH,Humidity,HourlyPrecipIn,Conditions,Clouds,dailyrainin,SoftwareType,DateUTC
2013-11-08 00:06:00,36.0,29.5,29.63,ESE,112,0.0,-999.0,77,-99.99,,,0.00,Acu-Link.com,2013-11-08 05:06:00,
2013-11-08 00:21:00,35.4,30.8,29.63,West,270,1.1,-999.0,83,-99.99,,,0.00,Acu-Link.com,2013-11-08 05:21:00,
2013-11-08 00:36:00,35.2,31.2,29.63,West,270,0.0,-999.0,85,-99.99,,,0.00,Acu-Link.com,2013-11-08 05:36:00,
2013-11-08 00:51:00,34.9,30.3,29.63,NNE,22,0.0,-999.0,83,-99.99,,,0.00,Acu-Link.com,2013-11-08 05:51:00,
2013-11-08 01:07:00,34.7,29.5,29.63,West,270,1.6,-999.0,81,-99.99,,,0.00,Acu-Link.com,2013-11-08 06:07:00,
2013-11-08 01:22:00,35.2,28.4,29.63,SSW,202,2.2,-999.0,76,-99.99,,,0.00,Acu-Link.com,2013-11-08 06:22:00,
2013-11-08 01:37:00,34.3,27.9,29.63,ENE,67,3.1,-999.0,77,-99.99,,,0.00,Acu-Link.com,2013-11-08 06:37:00,
2013-11-08 01:52:00,33.4,25.1,29.64,West,270,2.2,-999.0,71,-99.99,,,0.00,Acu-Link.com,2013-11-08 06:52:00,
2013-11-08 02:08:00,32.9,26.5,29.64,WNW,292,0.0,-999.0,77,-99.99,,,0.00,Acu-Link.com,2013-11-08 07:08:00,
2013-11-08 02:23:00,31.6,26.2,29.63,SSW,202,0.0,-999.0,80,-99.99,,,0.00,Acu-Link.com,2013-11-08 07:23:00,
2013-11-08 02:38:00,30.6,25.7,29.64,SSW,202,0.0,-999.0,82,-99.99,,,0.00,Acu-Link.com,2013-11-08 07:38:00,
2013-11-08 11:01:00,42.1,26.7,29.69,NW,315,4.3,-999.0,54,-99.99,,,0.00,Acu-Link.com,2013-11-08 16:01:00,
2013-11-08 11:16:00,41.0,28.2,29.69,West,270,1.6,-999.0,60,-99.99,,,0.00,Acu-Link.com,2013-11-08 16:16:00,
2013-11-08 11:31:00,42.4,28.3,29.68,NNW,337,3.8,-999.0,57,-99.99,,,0.00,Acu-Link.com,2013-11-08 16:31:00,
2013-11-08 11:47:00,42.8,27.8,29.68,SW,225,5.1,-999.0,55,-99.99,,,0.00,Acu-Link.com,2013-11-08 16:47:00,
2013-11-08 12:02:00,42.3,27.3,29.68,NNE,22,0.0,-999.0,55,-99.99,,,0.00,Acu-Link.com,2013-11-08 17:02:00,
2013-11-08 12:17:00,44.4,26.5,29.68,WNW,292,1.1,-999.0,49,-99.99,,,0.00,Acu-Link.com,2013-11-08 17:17:00,
2013-11-08 12:33:00,43.3,27.4,29.67,WSW,247,1.6,-999.0,53,-99.99,,,0.00,Acu-Link.com,2013-11-08 17:33:00,
2013-11-08 12:48:00,43.5,27.5,29.67,ESE,112,0.0,-999.0,53,-99.99,,,0.00,Acu-Link.com,2013-11-08 17:48:00,
2013-11-08 13:03:00,42.3,25.9,29.67,ESE,112,4.3,-999.0,52,-99.99,,,0.00,Acu-Link.com,2013-11-08 18:03:00,
2013-11-08 13:18:00,43.7,26.8,29.67,WSW,247,1.1,-999.0,51,-99.99,,,0.00,Acu-Link.com,2013-11-08 18:18:00,
2013-11-08 13:33:00,42.8,27.3,29.67,South,180,1.1,-999.0,54,-99.99,,,0.00,Acu-Link.com,2013-11-08 18:33:00,
2013-11-08 13:49:00,41.2,27.5,29.68,West,270,2.7,-999.0,58,-99.99,,,0.00,Acu-Link.com,2013-11-08 18:49:00,
2013-11-08 14:04:00,40.6,27.0,29.69,WNW,292,1.1,-999.0,58,-99.99,,,0.00,Acu-Link.com,2013-11-08 19:04:00,
2013-11-08 14:19:00,40.5,27.7,29.69,WSW,247,2.7,-999.0,60,-99.99,,,0.00,Acu-Link.com,2013-11-08 19:19:00,
2013-11-08 14:34:00,40.1,26.5,29.70,NNW,337,4.7,-999.0,58,-99.99,,,0.00,Acu-Link.com,2013-11-08 19:34:00,
2013-11-08 14:49:00,39.2,26.1,29.70,West,270,3.1,-999.0,59,-99.99,,,0.00,Acu-Link.com,2013-11-08 19:49:00,
2013-11-08 15:04:00,38.7,26.8,29.70,WSW,247,0.0,-999.0,62,-99.99,,,0.00,Acu-Link.com,2013-11-08 20:04:00,
2013-11-08 15:19:00,38.3,27.6,29.70,West,270,1.1,-999.0,65,-99.99,,,0.00,Acu-Link.com,2013-11-08 20:19:00,
2013-11-08 15:34:00,37.8,27.1,29.72,East,90,1.6,-999.0,65,-99.99,,,0.00,Acu-Link.com,2013-11-08 20:34:00,
2013-11-08 15:50:00,37.8,27.8,29.72,WNW,292,2.2,-999.0,67,-99.99,,,0.00,Acu-Link.com,2013-11-08 20:50:00,
2013-11-08 16:05:00,37.4,25.6,29.73,East,90,3.1,-999.0,62,-99.99,,,0.00,Acu-Link.com,2013-11-08 21:05:00,
2013-11-08 16:20:00,36.9,23.9,29.75,NNE,22,7.4,-999.0,59,-99.99,,,0.00,Acu-Link.com,2013-11-08 21:20:00,
2013-11-08 16:35:00,36.1,23.2,29.75,SW,225,1.1,-999.0,59,-99.99,,,0.00,Acu-Link.com,2013-11-08 21:35:00,
2013-11-08 16:51:00,35.2,23.5,29.76,SSW,202,1.6,-999.0,62,-99.99,,,0.00,Acu-Link.com,2013-11-08 21:51:00,
2013-11-08 17:06:00,34.9,24.3,29.76,NW,315,0.0,-999.0,65,-99.99,,,0.00,Acu-Link.com,2013-11-08 22:06:00,
2013-11-08 17:21:00,34.3,24.5,29.77,West,270,1.6,-999.0,67,-99.99,,,0.00,Acu-Link.com,2013-11-08 22:21:00,
2013-11-08 17:36:00,34.0,24.5,29.78,West,270,3.1,-999.0,68,-99.99,,,0.00,Acu-Link.com,2013-11-08 22:36:00,
2013-11-08 17:51:00,34.3,25.2,29.79,NW,315,2.7,-999.0,69,-99.99,,,0.00,Acu-Link.com,2013-11-08 22:51:00,
2013-11-08 18:06:00,34.3,24.9,29.79,West,270,3.1,-999.0,68,-99.99,,,0.00,Acu-Link.com,2013-11-08 23:06:00,
2013-11-08 18:22:00,34.0,25.2,29.80,WSW,247,3.8,-999.0,70,-99.99,,,0.00,Acu-Link.com,2013-11-08 23:22:00,
2013-11-08 18:37:00,34.2,24.7,29.80,West,270,1.6,-999.0,68,-99.99,,,0.00,Acu-Link.com,2013-11-08 23:37:00,
2013-11-08 18:52:00,34.5,25.1,29.80,NW,315,3.1,-999.0,68,-99.99,,,0.00,Acu-Link.com,2013-11-08 23:52:00,
2013-11-08 19:07:00,34.5,25.1,29.80,West,270,1.6,-999.0,68,-99.99,,,0.00,Acu-Link.com,2013-11-09 00:07:00,
2013-11-08 19:22:00,34.5,25.1,29.81,SW,225,0.0,-999.0,68,-99.99,,,0.00,Acu-Link.com,2013-11-09 00:22:00,
2013-11-08 19:38:00,34.5,25.4,29.82,West,270,2.7,-999.0,69,-99.99,,,0.00,Acu-Link.com,2013-11-09 00:38:00,
2013-11-08 19:53:00,34.5,25.8,29.83,NW,315,1.6,-999.0,70,-99.99,,,0.00,Acu-Link.com,2013-11-09 00:53:00,
2013-11-08 20:08:00,34.3,25.9,29.83,South,180,1.6,-999.0,71,-99.99,,,0.00,Acu-Link.com,2013-11-09 01:08:00,
2013-11-08 20:23:00,34.2,25.8,29.83,NNE,22,2.7,-999.0,71,-99.99,,,0.00,Acu-Link.com,2013-11-09 01:23:00,
2013-11-08 20:38:00,34.3,25.2,29.84,West,270,3.8,-999.0,69,-99.99,,,0.00,Acu-Link.com,2013-11-09 01:38:00,
2013-11-08 20:53:00,34.3,25.9,29.84,West,270,2.7,-999.0,71,-99.99,,,0.00,Acu-Link.com,2013-11-09 01:53:00,
2013-11-08 21:09:00,34.3,24.9,29.85,West,270,3.1,-999.0,68,-99.99,,,0.00,Acu-Link.com,2013-11-09 02:09:00,
2013-11-08 21:24:00,34.5,23.6,29.85,NW,315,3.8,-999.0,64,-99.99,,,0.00,Acu-Link.com,2013-11-09 02:24:00,
2013-11-08 21:39:00,34.5,23.6,29.85,SW,225,0.0,-999.0,64,-99.99,,,0.00,Acu-Link.com,2013-11-09 02:39:00,
2013-11-08 21:54:00,34.7,24.2,29.86,NNE,22,0.0,-999.0,65,-99.99,,,0.00,Acu-Link.com,2013-11-09 02:54:00,
2013-11-08 22:09:00,34.5,25.4,29.85,West,270,1.6,-999.0,69,-99.99,,,0.00,Acu-Link.com,2013-11-09 03:09:00,
2013-11-08 22:24:00,34.3,25.2,29.86,NNW,337,2.2,-999.0,69,-99.99,,,0.00,Acu-Link.com,2013-11-09 03:24:00,
2013-11-08 22:39:00,34.3,23.8,29.85,East,90,1.6,-999.0,65,-99.99,,,0.00,Acu-Link.com,2013-11-09 03:39:00,
2013-11-08 22:55:00,34.3,23.4,29.85,NW,315,2.2,-999.0,64,-99.99,,,0.00,Acu-Link.com,2013-11-09 03:55:00,
2013-11-08 23:10:00,34.5,23.6,29.85,SW,225,4.3,-999.0,64,-99.99,,,0.00,Acu-Link.com,2013-11-09 04:10:00,
2013-11-08 23:25:00,34.5,22.5,29.86,SSW,202,2.7,-999.0,61,-99.99,,,0.00,Acu-Link.com,2013-11-09 04:25:00,
2013-11-08 23:40:00,34.5,23.2,29.86,West,270,1.6,-999.0,63,-99.99,,,0.00,Acu-Link.com,2013-11-09 04:40:00,
2013-11-08 23:55:00,33.8,22.9,29.87,WNW,292,1.6,-999.0,64,-99.99,,,0.00,Acu-Link.com,2013-11-09 04:55:00,